This is the latest recevied weather packets stored in our database for station/object F4IDZ-11. If no packets are shown the sender has not sent any weather packets the latest 10 day(s).
| Time | Temp. | Humidity | Pressure | Rain* | Wind** | Luminosity | Snow |
|---|---|---|---|---|---|---|---|
| 1777552666 | 26.11° C | 40% | 996.5 hPa | - | - | - | - |
| 1777551766 | 25° C | 41% | 996.4 hPa | - | - | - | - |
| 1777550866 | 24.44° C | 41% | 996.5 hPa | - | - | - | - |
| 1777549965 | 23.33° C | 41% | 996.5 hPa | - | - | - | - |
| 1777549065 | 22.78° C | 42% | 996.5 hPa | - | - | - | - |
| 1777548165 | 21.67° C | 43% | 996.5 hPa | - | - | - | - |
| 1777547265 | 20.56° C | 43% | 996.6 hPa | - | - | - | - |
| 1777546365 | 20° C | 43% | 996.7 hPa | - | - | - | - |
| 1777545464 | 19.44° C | 44% | 996.7 hPa | - | - | - | - |
| 1777544564 | 18.33° C | 45% | 996.7 hPa | - | - | - | - |
| 1777543664 | 17.78° C | 45% | 996.5 hPa | - | - | - | - |
| 1777542764 | 17.22° C | 45% | 996.6 hPa | - | - | - | - |
| 1777541864 | 16.67° C | 46% | 996.7 hPa | - | - | - | - |
| 1777540964 | 16.11° C | 45% | 996.7 hPa | - | - | - | - |
| 1777540064 | 15.56° C | 46% | 996.8 hPa | - | - | - | - |
| 1777539163 | 15.56° C | 46% | 996.8 hPa | - | - | - | - |
| 1777538263 | 15° C | 46% | 996.8 hPa | - | - | - | - |
| 1777537363 | 15° C | 46% | 996.9 hPa | - | - | - | - |
| 1777536463 | 14.44° C | 46% | 996.9 hPa | - | - | - | - |
| 1777535563 | 14.44° C | 46% | 996.8 hPa | - | - | - | - |
| 1777534663 | 13.89° C | 47% | 996.8 hPa | - | - | - | - |
| 1777533762 | 13.89° C | 47% | 996.8 hPa | - | - | - | - |
| 1777532862 | 13.89° C | 47% | 996.8 hPa | - | - | - | - |
| 1777531962 | 13.89° C | 47% | 996.7 hPa | - | - | - | - |
| 1777531062 | 13.89° C | 47% | 996.8 hPa | - | - | - | - |
* Rain since midnight (hover to see other rain measurements)
** Current wind speed in m/s (hover to see current wind gust speed)